Location: Killarney Provincial Park Observatory
(46.0124°N, 81.4000°W)
Time: 09:29:26
(UTC-04:00)

Iridium 22 - Visible Passes

Search period start: 22 September 2017 00:00
Search period end: 02 October 2017 00:00
Orbit: 776 x 779 km, 86.4° (Epoch: 21 September)

Date Brightness Start Highest point End Pass type
(mag) Time Alt. Az. Time Alt. Az. Time Alt. Az.
22 Sep 8.1 02:17:44 10° NNE 02:19:02 16° NNE 02:19:02 16° NNE visible
22 Sep 7.5 03:58:00 10° NNW 03:59:29 19° NNW 03:59:29 19° NNW visible
23 Sep 8.5 01:45:14 10° NE 01:45:18 10° NE 01:45:18 10° NE visible
23 Sep 7.7 03:24:17 10° N 03:25:45 19° N 03:25:45 19° N visible
24 Sep 8.0 02:50:47 10° N 02:52:02 17° N 02:52:02 17° N visible
25 Sep 8.3 02:17:32 10° NNE 02:18:20 14° NNE 02:18:20 14° NNE visible
25 Sep 8.0 03:58:23 10° NNW 03:58:47 12° NNW 03:58:47 12° NNW visible
26 Sep 8.5 01:44:38 10° NNE 01:44:39 10° NNE 01:44:39 10° NNE visible
26 Sep 8.1 03:24:29 10° NNW 03:25:06 13° NNW 03:25:06 13° NNW visible
27 Sep 8.2 02:50:52 10° N 02:51:25 13° N 02:51:25 13° N visible
28 Sep 8.4 02:17:27 10° N 02:17:46 12° N 02:17:46 12° N visible
